INTELSAT 34 (IS-34)

Last updated on Tue Jul 01 2025 00:02:46 GMT+0000 (Coordinated Universal Time)

1 40874U 15039A 25181.55684685 -.00000286 00000+0 00000+0 0 9990 2 40874 0.0186 344.5898 0001681 4.8930 74.3509 1.00271357 36093
UTC large
Height (km)
Speed (km/s)
/
Latitude / Longitude
Inclination (degrees)
Orbital Period (minutes)
Azimuth
Elevation
Range (km)
Doppler Factor

Next 0 passes for location: London (51.5072 / 0.1276)

Sorry there are no passes over London.